Content
SEND FEEDBACK

Daily
Averages
Monthly
Summary
United States of America

MUSKEGON, MICHIGAN


Home > North America > United States > Michigan
Elevation: 628 feet     Latitude: 43 10N     Longitude: 086 14W

WEATHER
 
SELECT A DAY
Number of Records: 220,266;   Date Range: 1/1/95 - 9/18/14
 
SHARE

PRINT THIS DATA

[ ← Previous Day ]
WEATHER ALMANAC - JANUARY 3, 2013
[ Next Day → ]
[ °C ]   °F
Weather ElementAverageHighLow
Temperature28 °F30.9 °F (6:55 am)21.9 °F (1:55 am)
Dewpoint20.9 °F25 °F (6:55 am)14 °F (1:55 am)
Humidity74.8 %86 % (4:52 am)69 % (3:55 pm)
Barometer30.10 in30.19 in (7:55 pm)30.03 in (4:31 am)
Wind Speed10.6 mph15 mph (12:29 pm)
Wind Gust24.2 mph (10:55 pm)
Weather ElementAverage
Visibility6.6 mi
Wind DirectionWSW (245.2 °)

Weather ElementTotal
Precipitation0.02 in
Heating Degree Days38.6 (Base 65)
Averaged from 29 records on January 3, 2013
WEATHER CONDITIONS BREAKOUT
WIND DIRECTION BREAKOUT
WEATHER BY HOUR - JANUARY 3, 2013
[ °C ]   °F
Local TimeTemperatureDewpointHumidityBarometerVisibilityWind DirectionWind SpeedGust SpeedPrecipitationEventsConditions
1:55 AM21.9 °F14.0 °F72 %30.09 in8.0 miSE (140°)8.1 mphOvercast
2:55 AM21.9 °F15.1 °F75 %30.08 in6.0 miESE (120°)10.4 mph0.00 inSnowLight Snow
3:55 AM23.0 °F17.1 °F78 %30.07 in7.0 miSE (130°)8.1 mph0.00 inOvercast
4:31 AM23.0 °F17.6 °F80 %30.03 in1.8 miSE (130°)8.1 mph0.00 inSnowLight Snow
4:52 AM23.0 °F19.4 °F86 %30.03 in3.0 miSE (130°)9.2 mph0.01 inSnowLight Snow
4:55 AM23.0 °F19.0 °F85 %30.05 in4.0 miSE (130°)8.1 mph0.01 inSnowLight Snow
5:55 AM24.1 °F19.9 °F84 %30.05 in5.0 miESE (120°)8.1 mph0.00 inSnowLight Snow
6:55 AM30.9 °F25.0 °F79 %30.04 in9.0 miWSW (250°)8.1 mph0.00 inSnowLight Snow
7:26 AM30.2 °F24.8 °F80 %30.03 in8.0 miWest (270°)8.1 mph0.00 inSnowLight Snow
7:55 AM30.9 °F24.1 °F76 %30.06 in6.0 miWest (270°)10.4 mph0.00 inSnowLight Snow
8:55 AM30.0 °F23.0 °F75 %30.07 in5.0 miWNW (290°)9.2 mph0.00 inSnowLight Snow
9:55 AM28.9 °F21.9 °F75 %30.09 in4.0 miWest (280°)11.5 mph18.4 mph0.00 inSnowLight Snow
10:55 AM28.9 °F21.9 °F75 %30.11 in5.0 miWNW (290°)11.5 mph0.00 inSnowLight Snow
11:48 AM28.4 °F21.2 °F74 %30.08 in5.0 miWest (280°)10.4 mph0.00 inSnowLight Snow
11:55 AM28.9 °F21.9 °F75 %30.11 in5.0 miWNW (290°)11.5 mph0.00 inSnowLight Snow
12:29 PM28.4 °F21.2 °F74 %30.08 in5.0 miWNW (290°)15.0 mph0.00 inSnowLight Snow
12:55 PM28.9 °F21.9 °F75 %30.11 in4.0 miWNW (290°)13.8 mph18.4 mph0.00 inSnowLight Snow
1:55 PM28.0 °F21.9 °F78 %30.10 in3.0 miWNW (290°)11.5 mph0.00 inSnowLight Snow
2:37 PM28.4 °F21.2 °F74 %30.08 in6.0 miWNW (290°)11.5 mph0.00 inSnowLight Snow
2:55 PM28.9 °F21.0 °F72 %30.12 in6.0 miWNW (300°)11.5 mph0.00 inSnowLight Snow
3:55 PM30.0 °F21.0 °F69 %30.13 in8.0 miWNW (300°)8.1 mph18.4 mph0.00 inSnowLight Snow
4:55 PM30.0 °F21.0 °F69 %30.15 in9.0 miWNW (290°)10.4 mph17.3 mph0.00 inOvercast
5:55 PM30.0 °F21.0 °F69 %30.17 in9.0 miWNW (290°)9.2 mphOvercast
6:55 PM30.9 °F21.9 °F69 %30.18 in10.0 miWNW (290°)11.5 mph18.4 mphOvercast
7:55 PM30.9 °F21.9 °F69 %30.19 in10.0 miWest (280°)13.8 mph19.6 mphOvercast
8:55 PM30.0 °F21.9 °F72 %30.19 in9.0 miWest (270°)11.5 mphOvercast
9:55 PM30.0 °F21.9 °F72 %30.19 in10.0 miWest (280°)13.8 mph20.7 mphOvercast
10:55 PM30.9 °F21.9 °F69 %30.17 in10.0 miWest (270°)12.7 mph24.2 mphOvercast
11:55 PM30.9 °F21.9 °F69 %30.17 in10.0 miWest (260°)11.5 mph20.7 mphOvercast
Hourly data recorded from KMKG, located miles away from Muskegon, Michigan







STORIES FROM OUR PARTNERS